Simultaneous Nadir Overpasses (SNOs) Predictions

Prediction of SNOs near US between AQUA and NPP Satellite Orbit:

Table of predicted SNOs near US for the next 10.0 days since TLE Epoch: 10/8/2022
Index Date (AQUA) Time (AQUA) AQUA Lat,Lon Date (NPP) Time (NPP) NPP Lat,Lon Distance(km) Time Diff (sec)
1 10/12/2022 07:09:13 26.42, -77.91 10/12/2022 07:02:39 26.77, -79.83 194.39 394
2 10/12/2022 08:45:33 35.54,-100.19 10/12/2022 08:41:31 35.99,-102.59 222.51 242
3 10/12/2022 10:21:52 44.67,-121.99 10/12/2022 10:20:23 45.16,-124.84 231.43 89
4 10/14/2022 21:17:46 49.97,-124.04 10/14/2022 21:09:26 50.63,-126.68 202.02 500
